GAP2402 RPVM-RPVE

Flight info

Callsign GAP2402
Flight time 0h 39m
Altitude 20000
Route KEVAN1Q KEVAN TR2 BCD TR8 KLO KLO7A
Aircraft DH8D/M-SDE2E3FGRY/H

Departure

Time 2026-05-04 23:52
Airport Mactan Cebu International Airport (RPVM)

Arrival

Time 2026-05-05 00:32
Airport Godofredo P. Ramos Airport (RPVE)
Time Latitude Longitude Altitude Speed Heading
2026-05-04 23:35 10.31784 123.98189 38 ft 0 kts 314°
2026-05-04 23:42 10.31780 123.98193 37 ft 2 kts 314°
2026-05-04 23:42 10.31773 123.98199 37 ft 1 kts 314°
2026-05-04 23:42 10.31764 123.98216 37 ft 2 kts 279°
2026-05-04 23:42 10.31764 123.98226 37 ft 2 kts 262°
2026-05-04 23:43 10.31765 123.98231 37 ft 1 kts 254°
2026-05-04 23:43 10.31739 123.98206 37 ft 5 kts 208°
2026-05-04 23:43 10.31712 123.98189 37 ft 5 kts 210°
2026-05-04 23:43 10.31694 123.98176 37 ft 0 kts 225°
2026-05-04 23:44 10.31691 123.98173 37 ft 0 kts 226°
2026-05-04 23:46 10.31690 123.98172 37 ft 0 kts 226°
2026-05-04 23:46 10.31673 123.98155 37 ft 4 kts 223°
2026-05-04 23:46 10.31648 123.98132 37 ft 5 kts 221°
2026-05-04 23:46 10.31627 123.98119 37 ft 5 kts 200°
2026-05-04 23:47 10.31587 123.98126 37 ft 7 kts 147°
2026-05-04 23:47 10.31533 123.98180 37 ft 9 kts 134°
2026-05-04 23:47 10.31503 123.98211 37 ft 8 kts 134°
2026-05-04 23:47 10.31441 123.98220 37 ft 7 kts 221°
2026-05-04 23:48 10.31413 123.98193 37 ft 8 kts 224°
2026-05-04 23:48 10.31366 123.98145 37 ft 10 kts 225°
2026-05-04 23:48 10.31307 123.98086 37 ft 13 kts 225°
2026-05-04 23:48 10.31237 123.98016 37 ft 15 kts 225°
2026-05-04 23:49 10.31158 123.97936 37 ft 16 kts 225°
2026-05-04 23:49 10.31073 123.97850 37 ft 18 kts 225°
2026-05-04 23:49 10.30981 123.97758 37 ft 18 kts 225°
2026-05-04 23:49 10.30885 123.97661 37 ft 19 kts 225°
2026-05-04 23:50 10.30788 123.97563 37 ft 19 kts 225°
2026-05-04 23:50 10.30655 123.97430 37 ft 20 kts 225°
2026-05-04 23:50 10.30589 123.97363 37 ft 20 kts 225°
2026-05-04 23:50 10.30487 123.97263 37 ft 19 kts 224°
2026-05-04 23:51 10.30409 123.97184 37 ft 9 kts 226°
2026-05-04 23:51 10.30333 123.97173 37 ft 9 kts 138°
2026-05-04 23:51 10.30306 123.97201 37 ft 7 kts 137°
2026-05-04 23:51 10.30306 123.97221 37 ft 4 kts 47°
2026-05-04 23:52 10.30367 123.97282 37 ft 43 kts 45°
2026-05-04 23:52 10.31034 123.97952 39 ft 145 kts 44°
2026-05-04 23:52 10.31542 123.98453 249 ft 156 kts 45°
2026-05-04 23:52 10.32341 123.99252 764 ft 168 kts 45°
2026-05-04 23:53 10.33179 124.00096 1382 ft 176 kts 45°
2026-05-04 23:53 10.34060 124.00978 2007 ft 183 kts 46°
2026-05-04 23:53 10.34993 124.01906 2606 ft 186 kts 45°
2026-05-04 23:53 10.36099 124.02567 3112 ft 193 kts 13°
2026-05-04 23:54 10.37846 124.02133 3799 ft 206 kts 323°
2026-05-04 23:54 10.38460 124.01381 4176 ft 210 kts 301°
2026-05-04 23:54 10.39056 124.00050 4770 ft 209 kts 294°
2026-05-04 23:54 10.39621 123.98668 5289 ft 213 kts 294°
2026-05-04 23:55 10.40176 123.97279 5812 ft 215 kts 294°
2026-05-04 23:55 10.40722 123.95879 6346 ft 216 kts 293°
2026-05-04 23:55 10.42002 123.92516 7498 ft 222 kts 292°
2026-05-04 23:56 10.42554 123.91044 7984 ft 224 kts 292°
2026-05-04 23:56 10.43099 123.89582 8449 ft 224 kts 291°
2026-05-04 23:56 10.43473 123.88585 8717 ft 228 kts 291°
2026-05-04 23:56 10.44020 123.87106 9241 ft 225 kts 291°
2026-05-04 23:57 10.44578 123.85601 9668 ft 228 kts 291°
2026-05-04 23:57 10.45318 123.83601 10248 ft 230 kts 291°
2026-05-04 23:57 10.45691 123.82588 10534 ft 231 kts 291°
2026-05-04 23:57 10.46449 123.80534 11152 ft 234 kts 291°
2026-05-04 23:58 10.46839 123.79478 11401 ft 246 kts 291°
2026-05-04 23:58 10.47465 123.77779 11788 ft 263 kts 291°
2026-05-04 23:58 10.48104 123.76040 12421 ft 269 kts 290°
2026-05-04 23:58 10.48766 123.74238 13118 ft 274 kts 290°
2026-05-04 23:59 10.49428 123.72437 13770 ft 279 kts 290°
2026-05-04 23:59 10.50108 123.70586 14434 ft 284 kts 290°
2026-05-04 23:59 10.50798 123.68710 15144 ft 286 kts 290°
2026-05-04 23:59 10.51497 123.66806 15855 ft 289 kts 290°
2026-05-05 00:00 10.52431 123.64266 16785 ft 294 kts 290°
2026-05-05 00:00 10.52669 123.63620 16997 ft 296 kts 290°
2026-05-05 00:00 10.53632 123.60998 18001 ft 299 kts 290°
2026-05-05 00:00 10.54362 123.59013 18751 ft 301 kts 290°
2026-05-05 00:01 10.55088 123.57039 19446 ft 306 kts 291°
2026-05-05 00:01 10.55857 123.54943 19794 ft 326 kts 291°
2026-05-05 00:01 10.56961 123.51928 19915 ft 357 kts 291°
2026-05-05 00:01 10.57842 123.49515 19924 ft 378 kts 291°
2026-05-05 00:02 10.58460 123.47824 19935 ft 388 kts 291°
2026-05-05 00:02 10.59740 123.44316 19938 ft 405 kts 291°
2026-05-05 00:02 10.60401 123.42506 19943 ft 404 kts 290°
2026-05-05 00:02 10.61344 123.39919 19923 ft 385 kts 290°
2026-05-05 00:03 10.62276 123.37365 19946 ft 384 kts 290°
2026-05-05 00:03 10.63201 123.34837 19956 ft 382 kts 290°
2026-05-05 00:03 10.64136 123.32285 19962 ft 381 kts 290°
2026-05-05 00:03 10.65361 123.28936 19975 ft 380 kts 290°
2026-05-05 00:04 10.66282 123.26421 19983 ft 380 kts 290°
2026-05-05 00:04 10.66900 123.24734 19982 ft 382 kts 290°
2026-05-05 00:04 10.67866 123.22205 19972 ft 384 kts 293°
2026-05-05 00:04 10.68993 123.19766 19978 ft 385 kts 296°
2026-05-05 00:05 10.70165 123.17313 19970 ft 386 kts 296°
2026-05-05 00:05 10.71351 123.14832 19962 ft 387 kts 296°
2026-05-05 00:05 10.72914 123.11559 19949 ft 386 kts 296°
2026-05-05 00:05 10.73691 123.09930 19944 ft 386 kts 296°
2026-05-05 00:06 10.74855 123.07486 19935 ft 384 kts 296°
2026-05-05 00:06 10.76025 123.05027 19929 ft 384 kts 296°
2026-05-05 00:06 10.77279 123.02657 19890 ft 383 kts 305°
2026-05-05 00:06 10.79881 123.00295 19931 ft 377 kts 326°
2026-05-05 00:07 10.82062 122.98762 19924 ft 377 kts 326°
2026-05-05 00:07 10.83501 122.97758 19908 ft 378 kts 326°
2026-05-05 00:07 10.85653 122.96259 19907 ft 378 kts 326°
2026-05-05 00:07 10.88553 122.94238 19909 ft 378 kts 326°
2026-05-05 00:08 10.90017 122.93216 19910 ft 378 kts 326°
2026-05-05 00:08 10.92164 122.91718 19906 ft 378 kts 326°
2026-05-05 00:08 10.94332 122.90202 19903 ft 378 kts 326°
2026-05-05 00:08 10.96510 122.88680 19911 ft 378 kts 326°
2026-05-05 00:09 10.98688 122.87157 19910 ft 378 kts 326°
2026-05-05 00:09 11.00862 122.85635 19909 ft 378 kts 327°
2026-05-05 00:09 11.03029 122.84118 19907 ft 379 kts 326°
2026-05-05 00:09 11.05921 122.82093 19906 ft 379 kts 326°
2026-05-05 00:10 11.08115 122.80557 19905 ft 379 kts 326°
2026-05-05 00:10 11.10288 122.79034 19906 ft 379 kts 326°
2026-05-05 00:10 11.11727 122.78026 19907 ft 380 kts 326°
2026-05-05 00:10 11.13917 122.76490 19907 ft 381 kts 326°
2026-05-05 00:11 11.16104 122.74957 19907 ft 382 kts 326°
2026-05-05 00:11 11.18284 122.73428 19907 ft 382 kts 326°
2026-05-05 00:11 11.20492 122.71880 19908 ft 383 kts 326°
2026-05-05 00:11 11.22705 122.70328 19908 ft 383 kts 326°
2026-05-05 00:12 11.25625 122.68278 19906 ft 384 kts 326°
2026-05-05 00:12 11.27111 122.67236 19907 ft 384 kts 326°
2026-05-05 00:12 11.29313 122.65690 19908 ft 384 kts 326°
2026-05-05 00:12 11.31513 122.64145 19910 ft 384 kts 326°
2026-05-05 00:13 11.34442 122.62087 19908 ft 379 kts 326°
2026-05-05 00:13 11.35872 122.61083 19910 ft 376 kts 326°
2026-05-05 00:13 11.38049 122.59553 19914 ft 376 kts 326°
2026-05-05 00:13 11.40906 122.57546 19918 ft 377 kts 326°
2026-05-05 00:14 11.42357 122.56528 19920 ft 377 kts 326°
2026-05-05 00:14 11.44539 122.54994 19922 ft 378 kts 326°
2026-05-05 00:14 11.46693 122.53480 19923 ft 379 kts 326°
2026-05-05 00:14 11.48863 122.51955 19926 ft 379 kts 326°
2026-05-05 00:15 11.51056 122.50412 19929 ft 379 kts 326°
2026-05-05 00:15 11.53214 122.48894 19927 ft 380 kts 326°
2026-05-05 00:15 11.56127 122.46845 19934 ft 380 kts 326°
2026-05-05 00:15 11.58313 122.45306 19939 ft 380 kts 326°
2026-05-05 00:16 11.59769 122.44281 19934 ft 380 kts 326°
2026-05-05 00:16 11.61924 122.42763 19930 ft 380 kts 326°
2026-05-05 00:16 11.64111 122.41224 19934 ft 380 kts 326°
2026-05-05 00:16 11.66289 122.39690 19933 ft 380 kts 326°
2026-05-05 00:17 11.69036 122.37395 19914 ft 379 kts 313°
2026-05-05 00:17 11.70151 122.36029 19848 ft 382 kts 309°
2026-05-05 00:17 11.71816 122.33906 19428 ft 383 kts 309°
2026-05-05 00:17 11.74014 122.31084 18790 ft 382 kts 309°
2026-05-05 00:18 11.75116 122.29670 18440 ft 382 kts 309°
2026-05-05 00:18 11.76784 122.27532 17942 ft 381 kts 309°
2026-05-05 00:18 11.78431 122.25425 17457 ft 380 kts 309°
2026-05-05 00:18 11.80619 122.22628 16809 ft 380 kts 309°
2026-05-05 00:19 11.81720 122.21222 16484 ft 379 kts 309°
2026-05-05 00:19 11.83362 122.19125 15985 ft 377 kts 309°
2026-05-05 00:19 11.84989 122.17047 15496 ft 373 kts 309°
2026-05-05 00:19 11.86598 122.14993 15024 ft 370 kts 309°
2026-05-05 00:20 11.88752 122.12244 14385 ft 370 kts 309°
2026-05-05 00:20 11.90342 122.10216 13907 ft 369 kts 309°
2026-05-05 00:20 11.91426 122.08831 13580 ft 365 kts 309°
2026-05-05 00:20 11.93483 122.06200 12977 ft 352 kts 309°
2026-05-05 00:21 11.95012 122.04250 12562 ft 348 kts 309°
2026-05-05 00:21 11.96524 122.02322 12128 ft 346 kts 309°
2026-05-05 00:21 11.98006 122.00430 11686 ft 343 kts 309°
2026-05-05 00:21 11.98989 121.99173 11382 ft 333 kts 309°
2026-05-05 00:22 12.00406 121.97358 10959 ft 320 kts 309°
2026-05-05 00:22 12.02207 121.95049 10406 ft 305 kts 309°
2026-05-05 00:22 12.03153 121.93136 9698 ft 306 kts 281°
2026-05-05 00:22 12.02961 121.91053 9385 ft 292 kts 248°
2026-05-05 00:23 12.01999 121.89260 9060 ft 290 kts 236°
2026-05-05 00:23 12.01266 121.88097 8815 ft 289 kts 235°
2026-05-05 00:23 12.00150 121.86379 8439 ft 288 kts 234°
2026-05-05 00:23 11.98668 121.84145 7947 ft 284 kts 234°
2026-05-05 00:24 11.97924 121.83034 7701 ft 283 kts 234°
2026-05-05 00:24 11.96820 121.81394 7338 ft 280 kts 234°
2026-05-05 00:24 11.95346 121.79219 6858 ft 276 kts 234°
2026-05-05 00:24 11.94258 121.77621 6504 ft 273 kts 233°
2026-05-05 00:25 11.93180 121.76042 6153 ft 270 kts 233°
2026-05-05 00:25 11.91942 121.74619 5520 ft 269 kts 211°
2026-05-05 00:25 11.90235 121.74139 5169 ft 246 kts 172°
2026-05-05 00:25 11.89164 121.74404 4991 ft 232 kts 155°
2026-05-05 00:26 11.87717 121.75024 4709 ft 221 kts 151°
2026-05-05 00:26 11.86342 121.75657 4432 ft 210 kts 150°
2026-05-05 00:26 11.85051 121.76285 4131 ft 201 kts 145°
2026-05-05 00:26 11.84093 121.77747 3635 ft 191 kts 88°
2026-05-05 00:27 11.84277 121.78618 3477 ft 192 kts 69°
2026-05-05 00:27 11.84825 121.79865 3218 ft 192 kts 65°
2026-05-05 00:27 11.85409 121.81094 2958 ft 191 kts 64°
2026-05-05 00:27 11.85997 121.82302 2703 ft 188 kts 64°
2026-05-05 00:28 11.86750 121.83829 2375 ft 174 kts 64°
2026-05-05 00:28 11.87101 121.84540 2225 ft 161 kts 64°
2026-05-05 00:28 11.87566 121.85480 2031 ft 138 kts 64°
2026-05-05 00:28 11.88089 121.86552 1846 ft 119 kts 65°
2026-05-05 00:29 11.88329 121.87058 1728 ft 119 kts 65°
2026-05-05 00:29 11.88691 121.87811 1569 ft 118 kts 65°
2026-05-05 00:29 11.89058 121.88571 1398 ft 118 kts 65°
2026-05-05 00:29 11.89547 121.89567 1189 ft 115 kts 64°
2026-05-05 00:30 11.89782 121.90044 1093 ft 115 kts 65°
2026-05-05 00:30 11.90267 121.91024 872 ft 115 kts 64°
2026-05-05 00:30 11.90495 121.91505 780 ft 113 kts 66°
2026-05-05 00:30 11.90988 121.92473 621 ft 118 kts 64°
2026-05-05 00:31 11.91243 121.92973 518 ft 118 kts 65°
2026-05-05 00:31 11.91606 121.93703 351 ft 114 kts 64°
2026-05-05 00:31 11.92086 121.94659 144 ft 113 kts 64°
2026-05-05 00:31 11.92444 121.95374 34 ft 112 kts 64°
2026-05-05 00:32 11.92730 121.95943 31 ft 51 kts 62°
2026-05-05 00:32 11.92782 121.96046 31 ft 11 kts 62°
2026-05-05 00:32 11.92800 121.96104 31 ft 6 kts 110°
2026-05-05 00:32 11.92773 121.96126 31 ft 4 kts 150°
2026-05-05 00:33 11.92740 121.96144 31 ft 6 kts 153°
2026-05-05 00:33 11.92694 121.96169 31 ft 8 kts 153°
2026-05-05 00:33 11.92639 121.96191 31 ft 7 kts 171°
2026-05-05 00:33 11.92576 121.96212 31 ft 7 kts 152°
2026-05-05 00:34 11.92544 121.96229 31 ft 8 kts 152°
2026-05-05 00:34 11.92489 121.96258 31 ft 9 kts 153°
2026-05-05 00:34 11.92445 121.96280 31 ft 4 kts 153°
2026-05-05 00:34 11.92433 121.96298 31 ft 1 kts 78°
2026-05-05 00:35 11.92441 121.96313 31 ft 2 kts 62°
2026-05-05 00:35 11.92451 121.96333 31 ft 1 kts 63°
2026-05-05 00:35 11.92452 121.96335 31 ft 0 kts 63°